When you browse on this site, cookies collect data to enhance your experience and personalize the content and advertising you see.
Visit our Privacy Policy to learn more. By continuing to use the site, you agree to this use of cookies and data.
  • In Österreich
  • Länderverzeichnis
  • Für 7 Tage
  • Wassertemperatur
  • Satellitenkarten
  • Wetterkarte
  • News
  • Widgets
  • user-avatar
    Anmelden

    Stündliche Wetter Rohyntsi

    Heute, 21 Februar, Donnerstag

    Zeit Temperatur Niederschläge Wind Luftdruck Luftfeuchtigkeit
    00:00 -1°C° 0.1 mm 5 m/S 744 mmHg 90%
    01:00 -2°C° 0.1 mm 6 m/S 744 mmHg 90%
    02:00 -1°C° 0 mm 5 m/S 743 mmHg 93%
    03:00 -2°C° 0.1 mm 6 m/S 743 mmHg 91%
    04:00 -2°C° 0.1 mm 7 m/S 743 mmHg 90%
    05:00 -2°C° 0.1 mm 7 m/S 743 mmHg 89%
    06:00 -3°C° 0 mm 7 m/S 744 mmHg 87%
    07:00 -6°C° 0 mm 7 m/S 744 mmHg 85%
    08:00 -6°C° 0 mm 6 m/S 745 mmHg 84%
    09:00 -7°C° 0.1 mm 7 m/S 745 mmHg 82%
    10:00 -7°C° 0.1 mm 8 m/S 745 mmHg 80%
    11:00 -7°C° 0.1 mm 8 m/S 746 mmHg 79%
    12:00 -7°C° 0.1 mm 8 m/S 746 mmHg 79%
    13:00 -7°C° 0.1 mm 8 m/S 746 mmHg 78%
    14:00 -7°C° 0.1 mm 8 m/S 746 mmHg 78%
    15:00 -8°C° 0.1 mm 7 m/S 747 mmHg 79%
    16:00 -8°C° 0.1 mm 6 m/S 747 mmHg 80%
    17:00 -9°C° 0.1 mm 6 m/S 747 mmHg 81%
    18:00 -10°C° 0 mm 5 m/S 748 mmHg 82%
    19:00 -10°C° 0 mm 5 m/S 748 mmHg 83%
    20:00 -11°C° 0 mm 5 m/S 748 mmHg 85%
    21:00 -12°C° 0 mm 5 m/S 749 mmHg 86%
    22:00 -12°C° 0 mm 5 m/S 749 mmHg 87%
    23:00 -12°C° 0 mm 5 m/S 749 mmHg 88%

    Morgen, 22 Februar, Freitag

    Zeit Temperatur Niederschläge Wind Luftdruck Luftfeuchtigkeit
    00:00 -13°C° 0 mm 5 m/S 749 mmHg 88%
    01:00 -12°C° 0 mm 4 m/S 749 mmHg 88%
    02:00 -14°C° 0 mm 4 m/S 750 mmHg 89%
    03:00 -14°C° 0 mm 4 m/S 750 mmHg 89%
    04:00 -15°C° 0 mm 4 m/S 750 mmHg 90%
    05:00 -15°C° 0 mm 4 m/S 750 mmHg 91%
    06:00 -15°C° 0 mm 4 m/S 750 mmHg 91%
    07:00 -15°C° 0 mm 4 m/S 751 mmHg 90%
    08:00 -15°C° 0 mm 4 m/S 751 mmHg 90%
    09:00 -15°C° 0 mm 5 m/S 751 mmHg 88%
    10:00 -14°C° 0 mm 5 m/S 752 mmHg 86%
    11:00 -14°C° 0 mm 6 m/S 752 mmHg 83%
    12:00 -12°C° 0 mm 6 m/S 752 mmHg 82%
    13:00 -12°C° 0 mm 6 m/S 752 mmHg 80%
    14:00 -11°C° 0 mm 6 m/S 752 mmHg 78%
    15:00 -11°C° 0 mm 6 m/S 753 mmHg 80%
    16:00 -11°C° 0 mm 5 m/S 753 mmHg 81%
    17:00 -12°C° 0 mm 5 m/S 753 mmHg 83%
    18:00 -12°C° 0 mm 5 m/S 754 mmHg 84%
    19:00 -13°C° 0 mm 5 m/S 754 mmHg 86%
    20:00 -14°C° 0 mm 5 m/S 755 mmHg 87%
    21:00 -14°C° 0 mm 5 m/S 755 mmHg 89%
    22:00 -14°C° 0 mm 5 m/S 756 mmHg 90%
    23:00 -14°C° 0 mm 4 m/S 756 mmHg 91%

    übermorgen, 23 Februar, Samstag

    Zeit Temperatur Niederschläge Wind Luftdruck Luftfeuchtigkeit
    00:00 -14°C° 0 mm 4 m/S 756 mmHg 91%
    01:00 -14°C° 0 mm 4 m/S 757 mmHg 92%
    02:00 -14°C° 0 mm 4 m/S 757 mmHg 92%
    03:00 -14°C° 0 mm 5 m/S 757 mmHg 91%
    04:00 -14°C° 0 mm 5 m/S 758 mmHg 90%
    05:00 -14°C° 0 mm 5 m/S 758 mmHg 89%
    06:00 -14°C° 0 mm 5 m/S 759 mmHg 89%
    07:00 -15°C° 0 mm 5 m/S 759 mmHg 89%
    08:00 -15°C° 0 mm 5 m/S 760 mmHg 89%
    09:00 -14°C° 0 mm 5 m/S 760 mmHg 88%
    10:00 -14°C° 0 mm 5 m/S 761 mmHg 87%
    11:00 -14°C° 0 mm 6 m/S 761 mmHg 86%
    12:00 -14°C° 0 mm 6 m/S 761 mmHg 85%
    13:00 -14°C° 0 mm 6 m/S 761 mmHg 85%
    14:00 -12°C° 0 mm 5 m/S 761 mmHg 84%
    15:00 -13°C° 0 mm 5 m/S 761 mmHg 86%
    16:00 -12°C° 0 mm 4 m/S 762 mmHg 87%
    17:00 -13°C° 0 mm 3 m/S 762 mmHg 88%
    18:00 -13°C° 0 mm 3 m/S 762 mmHg 90%
    19:00 -14°C° 0 mm 3 m/S 762 mmHg 91%
    20:00 -15°C° 0 mm 3 m/S 762 mmHg 92%
    21:00 -16°C° 0 mm 3 m/S 762 mmHg 92%
    22:00 -15°C° 0 mm 2 m/S 762 mmHg 93%
    23:00 -16°C° 0 mm 2 m/S 762 mmHg 93%

    24 Februar, Sonntag

    Zeit Temperatur Niederschläge Wind Luftdruck Luftfeuchtigkeit
    00:00 -16°C° 0 mm 2 m/S 762 mmHg 94%
    01:00 -16°C° 0 mm 2 m/S 762 mmHg 94%
    02:00 -16°C° 0 mm 2 m/S 762 mmHg 94%
    03:00 -16°C° 0 mm 2 m/S 762 mmHg 94%
    04:00 -16°C° 0 mm 2 m/S 762 mmHg 94%
    05:00 -16°C° 0 mm 2 m/S 762 mmHg 95%
    06:00 -16°C° 0 mm 2 m/S 762 mmHg 94%
    07:00 -13°C° 0 mm 1 m/S 762 mmHg 93%
    08:00 -13°C° 0 mm 1 m/S 762 mmHg 93%
    09:00 -11°C° 0 mm 1 m/S 762 mmHg 89%
    10:00 -10°C° 0 mm 1 m/S 762 mmHg 85%
    11:00 -8°C° 0 mm 1 m/S 762 mmHg 81%
    12:00 -7°C° 0 mm 1 m/S 762 mmHg 79%
    13:00 -6°C° 0 mm 1 m/S 761 mmHg 77%
    14:00 -6°C° 0 mm 1 m/S 761 mmHg 75%
    15:00 -7°C° 0 mm 1 m/S 761 mmHg 78%
    16:00 -7°C° 0 mm 1 m/S 761 mmHg 81%
    17:00 -8°C° 0 mm 1 m/S 761 mmHg 85%
    18:00 -9°C° 0 mm 1 m/S 761 mmHg 85%
    19:00 -9°C° 0 mm 1 m/S 761 mmHg 85%
    20:00 -9°C° 0 mm 1 m/S 762 mmHg 85%
    21:00 -9°C° 0 mm 1 m/S 762 mmHg 85%
    22:00 -10°C° 0 mm 2 m/S 762 mmHg 85%
    23:00 -12°C° 0 mm 2 m/S 762 mmHg 85%

    25 Februar, Montag

    Zeit Temperatur Niederschläge Wind Luftdruck Luftfeuchtigkeit
    00:00 -12°C° 0 mm 2 m/S 762 mmHg 85%
    01:00 -12°C° 0 mm 2 m/S 762 mmHg 86%
    02:00 -12°C° 0 mm 2 m/S 762 mmHg 86%
    03:00 -13°C° 0 mm 3 m/S 761 mmHg 86%
    04:00 -13°C° 0 mm 3 m/S 761 mmHg 87%
    05:00 -13°C° 0 mm 3 m/S 761 mmHg 87%
    06:00 -12°C° 0 mm 3 m/S 760 mmHg 88%
    07:00 -11°C° 0 mm 4 m/S 760 mmHg 89%
    08:00 -10°C° 0 mm 4 m/S 760 mmHg 89%
    09:00 -8°C° 0 mm 4 m/S 760 mmHg 89%
    10:00 -7°C° 0 mm 5 m/S 759 mmHg 89%
    11:00 -5°C° 0 mm 6 m/S 759 mmHg 89%
    12:00 -4°C° 0 mm 6 m/S 758 mmHg 89%
    13:00 -3°C° 0 mm 6 m/S 757 mmHg 89%
    14:00 -3°C° 0 mm 7 m/S 757 mmHg 89%
    15:00 -3°C° 0 mm 6 m/S 756 mmHg 90%
    16:00 -3°C° 0 mm 6 m/S 756 mmHg 91%
    17:00 -3°C° 0 mm 6 m/S 755 mmHg 91%
    18:00 -3°C° 0 mm 6 m/S 755 mmHg 91%
    19:00 -2°C° 0 mm 6 m/S 755 mmHg 91%
    20:00 -2°C° 0 mm 6 m/S 754 mmHg 91%
    21:00 -3°C° 0 mm 6 m/S 754 mmHg 91%
    22:00 -3°C° 0 mm 6 m/S 754 mmHg 92%
    23:00 -4°C° 0 mm 5 m/S 754 mmHg 92%

    26 Februar, Dienstag

    Zeit Temperatur Niederschläge Wind Luftdruck Luftfeuchtigkeit
    00:00 -4°C° 0 mm 5 m/S 753 mmHg 92%
    01:00 -5°C° 0 mm 5 m/S 753 mmHg 92%
    02:00 -6°C° 0 mm 5 m/S 753 mmHg 92%
    03:00 -6°C° 0 mm 5 m/S 753 mmHg 93%
    04:00 -7°C° 0 mm 4 m/S 752 mmHg 93%
    05:00 -7°C° 0 mm 4 m/S 752 mmHg 94%
    06:00 -7°C° 0 mm 5 m/S 752 mmHg 94%
    07:00 -6°C° 0 mm 5 m/S 752 mmHg 94%
    08:00 -6°C° 0 mm 6 m/S 751 mmHg 95%
    09:00 -5°C° 0 mm 6 m/S 751 mmHg 93%
    10:00 -5°C° 0 mm 5 m/S 750 mmHg 91%
    11:00 -4°C° 0 mm 5 m/S 750 mmHg 89%
    12:00 -4°C° 0 mm 5 m/S 749 mmHg 89%
    13:00 -2°C° 0 mm 5 m/S 748 mmHg 88%
    14:00 -2°C° 0 mm 5 m/S 747 mmHg 88%
    15:00 -2°C° 0 mm 5 m/S 746 mmHg 89%
    16:00 -2°C° 0 mm 5 m/S 746 mmHg 90%
    17:00 -2°C° 0 mm 4 m/S 745 mmHg 91%
    18:00 -2°C° 0.2 mm 4 m/S 744 mmHg 91%
    19:00 -2°C° 0.2 mm 5 m/S 743 mmHg 92%
    20:00 -2°C° 0.2 mm 5 m/S 742 mmHg 92%
    21:00 -1°C° 0.3 mm 5 m/S 741 mmHg 91%
    22:00 -2°C° 0.3 mm 6 m/S 740 mmHg 91%
    23:00 -2°C° 0.3 mm 7 m/S 739 mmHg 91%
    Mehr zeigen